TimeCDT,TemperatureF,Dew PointF,Humidity,Sea Level PressureIn,VisibilityMPH,Wind Direction,Wind SpeedMPH,Gust SpeedMPH,PrecipitationIn,Events,Conditions,WindDirDegrees,DateUTC
12:55 AM,46.0,46.0,100,30.17,10.0,Calm,Calm,-,N/A,,Clear,0,2013-08-23 05:55:00
1:55 AM,46.9,45.0,93,30.16,10.0,Calm,Calm,-,N/A,,Clear,0,2013-08-23 06:55:00
2:55 AM,45.0,43.0,93,30.16,10.0,Calm,Calm,-,N/A,,Clear,0,2013-08-23 07:55:00
3:55 AM,45.0,44.1,97,30.15,10.0,Calm,Calm,-,N/A,,Clear,0,2013-08-23 08:55:00
4:55 AM,44.1,42.1,93,30.15,10.0,ESE,3.5,-,N/A,,Clear,120,2013-08-23 09:55:00
5:55 AM,43.0,41.0,93,30.15,10.0,Calm,Calm,-,N/A,,Clear,0,2013-08-23 10:55:00
6:55 AM,45.0,44.1,97,30.16,10.0,Calm,Calm,-,N/A,,Clear,0,2013-08-23 11:55:00
7:55 AM,53.1,48.9,86,30.16,10.0,Calm,Calm,-,N/A,,Clear,0,2013-08-23 12:55:00
8:55 AM,59.0,53.1,81,30.16,10.0,Calm,Calm,-,N/A,,Clear,0,2013-08-23 13:55:00
9:55 AM,66.0,53.1,63,30.15,10.0,South,3.5,-,N/A,,Clear,190,2013-08-23 14:55:00
10:55 AM,71.1,52.0,51,30.14,10.0,Calm,Calm,-,N/A,,Clear,0,2013-08-23 15:55:00
11:55 AM,73.9,54.0,50,30.13,10.0,West,8.1,-,N/A,,Clear,270,2013-08-23 16:55:00
12:55 PM,77.0,53.1,43,30.10,10.0,Variable,5.8,-,N/A,,Clear,0,2013-08-23 17:55:00
1:55 PM,78.1,52.0,40,30.09,10.0,SSW,6.9,-,N/A,,Clear,210,2013-08-23 18:55:00
2:55 PM,78.1,53.1,42,30.07,10.0,SSW,9.2,-,N/A,,Clear,200,2013-08-23 19:55:00
3:55 PM,79.0,53.1,40,30.05,10.0,SSE,6.9,-,N/A,,Clear,150,2013-08-23 20:55:00
4:55 PM,78.1,54.0,43,30.04,10.0,SSE,5.8,-,N/A,,Clear,150,2013-08-23 21:55:00
5:55 PM,78.1,54.0,43,30.03,10.0,Variable,4.6,-,N/A,,Clear,0,2013-08-23 22:55:00
6:55 PM,75.0,57.0,53,30.03,10.0,Calm,Calm,-,N/A,,Clear,0,2013-08-23 23:55:00
7:55 PM,72.0,57.0,59,30.01,10.0,SE,3.5,-,N/A,,Clear,140,2013-08-24 00:55:00
8:55 PM,64.9,57.9,78,30.02,10.0,SE,4.6,-,N/A,,Clear,130,2013-08-24 01:55:00
9:55 PM,64.9,57.0,75,30.02,10.0,SE,3.5,-,N/A,,Clear,140,2013-08-24 02:55:00
10:55 PM,63.0,55.9,78,30.01,10.0,SE,4.6,-,N/A,,Scattered Clouds,130,2013-08-24 03:55:00
11:55 PM,63.0,55.0,75,30.01,10.0,SE,4.6,-,N/A,,Clear,140,2013-08-24 04:55:00